Wind_Speed
13 13 14 14 15 15 16 17 17 18 19 19 18 18 19 20 20 20 20 21 21 21 22 22 23 23 24 24 24 24 23 23 24 24 23 22 20 20 19 19 19 19 18 17 17 16 16 15 14 13 12 12 12 12 11 11 11 11 11 11 11 11 11 11 11 11 12 12 13 14 14 15 15 16
14 15 15 15 15 15 16 17 17 18 19 19 19 19 20 20 21 21 21 21 22 22 22 23 23 24 24 24 24 24 24 24 25 25 24 23 21 21 20 20 20 20 19 18 17 17 16 16 15 14 13 13 12 12 11 11 11 12 12 12 13 13 13 12 13 13 13 14 14 15 16 16 17 18
15 15 16 16 16 16 17 18 18 19 19 19 19 20 20 21 21 21 21 21 21 21 21 22 22 23 24 24 25 25 25 26 27 27 26 24 22 21 21 21 21 20 20 19 18 18 17 16 15 14 14 14 13 12 12 12 12 13 14 14 14 14 14 14 14 15 15 16 17 18 19 20 21 22
14 15 15 16 16 17 18 19 19 20 20 20 20 20 21 21 21 21 21 21 21 21 20 21 22 23 24 25 26 26 26 27 27 27 26 24 23 21 21 20 20 20 20 20 19 19 18 17 16 16 16 15 15 15 14 14 15 16 16 17 17 17 17 17 18 18 19 21 22 23 25 26 27 28
14 14 15 15 16 17 17 18 18 19 20 20 20 21 21 21 21 21 22 22 22 21 21 22 23 24 24 24 24 25 25 26 26 26 25 23 21 21 20 20 20 21 21 20 20 20 19 18 17 17 17 17 18 18 18 18 18 19 20 20 20 20 20 21 21 22 23 25 27 28 30 31 32 33
13 13 14 14 15 16 16 17 17 18 19 19 20 20 21 21 21 22 22 23 23 23 23 23 23 23 24 23 23 23 23 24 24 23 23 22 21 20 20 21 21 21 21 20 20 20 20 19 19 19 19 20 20 21 21 21 22 22 23 23 23 23 23 24 24 25 27 29 30 32 33 34 34 35
11 12 13 13 14 15 15 16 17 17 18 19 20 20 21 21 21 22 22 22 23 23 23 23 23 23 23 22 22 22 22 22 22 22 22 22 22 21 21 21 21 21 21 21 21 21 21 21 21 21 22 22 23 23 24 24 25 25 25 25 25 25 25 26 27 28 29 31 32 33 33 33 34 34
11 12 12 13 13 14 15 16 16 17 17 18 19 19 20 20 20 21 21 21 21 22 22 22 22 22 21 20 20 21 21 22 22 23 23 23 23 23 23 22 22 23 23 23 23 23 23 23 23 24 24 25 25 25 26 27 27 27 27 26 26 26 27 28 29 30 32 33 33 33 33 32 32 32
12 13 13 14 14 15 15 15 15 15 16 16 16 17 17 18 19 19 19 20 19 19 19 20 20 21 20 20 20 21 22 22 23 24 24 24 24 25 25 25 25 25 25 26 26 26 26 25 25 26 26 26 27 27 28 28 28 28 28 28 28 28 29 31 33 34 35 35 35 34 34 34 33 32
13 13 14 14 15 15 15 15 15 15 15 15 15 15 16 16 17 18 18 18 18 18 18 19 20 21 21 21 21 22 22 23 24 25 26 26 26 27 27 27 27 28 28 29 29 29 29 29 28 28 28 28 29 29 29 29 29 29 29 29 30 31 33 36 37 38 38 38 37 37 37 36 36 35
14 14 15 15 16 16 16 16 16 16 16 15 15 15 15 16 16 17 17 17 18 18 19 20 21 22 22 23 23 23 23 24 25 26 27 28 28 28 28 28 28 30 31 32 33 33 33 32 32 32 32 32 32 31 30 30 30 30 31 32 34 35 37 39 39 40 40 39 39 38 38 38 38 38
15 16 16 17 17 18 18 17 17 16 16 16 16 16 16 16 17 18 19 20 20 21 21 22 23 23 23 24 24 23 23 24 25 27 28 29 29 30 30 30 31 32 33 33 34 34 34 34 34 34 34 34 34 33 32 31 31 33 34 36 37 38 39 40 40 41 40 40 40 40 40 40 40 41
17 18 18 19 18 18 18 17 17 16 16 15 15 15 15 16 16 17 18 19 20 21 22 22 23 23 23 23 24 24 24 25 26 27 28 29 30 31 32 33 34 35 36 35 35 35 35 34 34 34 35 35 35 34 34 33 34 36 37 37 38 39 40 41 42 41 41 41 41 42 42 42 43 43
19 20 20 20 20 19 19 19 18 18 17 16 16 15 16 16 16 17 17 17 18 19 20 21 22 23 23 23 23 24 25 26 28 29 30 31 31 32 33 35 37 38 38 38 38 38 37 36 36 36 36 37 37 36 36 36 37 38 39 39 40 41 42 43 43 43 42 42 42 42 43 43 44 44
22 22 22 22 22 21 22 22 21 21 20 19 18 18 18 18 19 19 19 19 19 19 20 22 22 23 23 24 25 26 28 30 31 32 32 33 33 34 35 37 38 39 40 40 41 41 40 39 39 39 39 39 39 39 39 40 41 41 41 42 43 44 44 45 45 44 44 43 42 41 42 42 43 44
25 25 24 24 24 24 24 25 25 24 23 23 22 22 21 21 21 21 22 22 22 23 23 23 24 24 25 27 29 31 32 33 33 34 33 33 34 35 37 37 39 40 41 41 41 42 42 42 42 42 42 42 42 42 42 43 44 44 44 45 45 46 46 46 46 46 45 44 42 41 41 42 43 45
27 27 27 27 26 27 27 28 28 28 27 27 27 27 26 25 24 24 24 25 25 26 25 25 26 27 28 30 32 35 36 35 35 35 34 34 35 37 37 37 38 39 40 41 42 42 43 43 44 44 45 45 45 44 44 45 45 46 46 47 47 47 47 47 47 48 47 46 45 44 44 45 47 49
30 30 30 30 30 31 31 31 32 32 32 32 32 33 33 32 30 30 29 29 29 28 28 28 30 31 32 32 34 36 36 36 35 36 37 39 40 40 38 39 39 39 40 41 42 43 43 44 45 45 46 46 46 45 45 45 46 48 49 49 49 49 49 49 49 49 49 49 49 50 50 51 52 53
32 32 33 33 33 34 34 35 36 36 37 37 38 38 39 39 39 38 37 37 35 33 32 33 34 35 35 36 37 36 36 36 37 39 42 45 45 44 43 43 42 41 41 41 42 43 44 44 44 45 45 45 45 45 46 47 49 50 51 50 50 49 50 50 50 49 50 50 50 51 52 53 54 54
35 36 36 36 36 37 37 38 39 39 40 41 42 42 43 44 44 44 44 44 43 41 39 37 37 38 38 39 39 39 39 41 42 44 46 48 48 47 47 47 46 45 44 44 44 45 45 45 45 45 45 46 47 48 49 50 50 51 50 50 49 49 50 50 50 49 49 49 50 51 52 53 53 53
39 40 41 41 41 41 41 42 43 44 44 44 45 46 46 46 46 46 47 48 48 46 44 42 42 42 42 42 42 44 45 45 45 46 47 48 50 51 51 50 48 48 48 48 48 47 46 46 46 47 47 48 48 49 49 49 49 49 49 48 48 49 49 49 49 48 48 48 50 51 51 52 52 53
43 44 45 45 46 46 46 47 48 49 49 49 49 49 50 50 50 49 50 50 49 48 47 47 47 46 46 45 46 47 48 47 47 48 48 48 50 51 51 50 49 49 51 52 51 51 49 48 47 47 47 47 48 48 48 48 48 48 48 48 48 47 47 47 47 47 48 49 50 51 51 52 52 53
46 47 48 49 50 51 51 52 53 54 54 54 53 54 54 53 52 52 53 54 53 52 52 53 52 51 49 48 48 49 51 50 49 49 49 49 49 50 51 51 51 52 52 53 53 53 52 49 48 48 47 47 47 47 48 48 48 47 47 48 47 47 47 47 47 48 48 49 50 51 51 52 52 54
50 50 51 52 54 55 56 57 57 58 59 58 58 57 57 57 55 55 55 55 55 55 56 56 55 54 53 53 52 52 52 52 51 51 52 52 52 52 52 53 55 55 53 53 54 54 52 51 50 49 48 47 46 45 46 47 48 48 48 48 48 47 47 48 48 48 49 49 50 52 52 52 53 55
54 54 55 56 57 58 59 60 60 61 61 61 60 60 59 59 58 58 57 57 56 56 57 57 57 58 58 58 58 56 54 52 52 53 55 55 56 55 55 56 56 55 54 53 53 53 53 52 50 49 48 47 45 45 46 47 48 48 48 48 48 47 47 47 48 48 49 50 51 53 53 54 55 56
58 58 58 59 59 60 61 61 61 61 61 61 60 59 58 58 57 57 57 57 58 58 58 59 60 61 61 61 60 59 57 56 56 56 56 56 56 57 57 57 56 55 54 52 50 50 51 51 50 51 49 46 45 46 47 47 48 48 47 47 47 46 46 46 47 48 49 51 53 54 54 55 55 55
60 60 61 61 61 61 61 61 60 61 61 60 59 58 57 58 58 59 59 60 61 61 62 63 63 63 63 62 61 59 58 57 57 57 57 57 57 58 58 57 55 54 54 51 48 47 48 49 49 49 48 46 46 48 48 47 47 47 46 46 45 45 45 46 47 48 50 52 53 54 55 55 54 52
60 60 61 61 62 62 62 62 62 61 61 62 61 61 61 62 63 63 64 64 64 64 64 64 64 63 62 61 59 58 57 57 58 58 58 58 58 58 58 57 55 53 52 49 46 46 48 48 48 47 46 47 48 47 46 45 46 46 45 44 44 45 45 46 47 49 51 52 53 54 55 54 51 47
62 63 63 63 63 63 63 64 64 64 64 64 65 65 66 67 67 67 66 66 65 65 64 62 61 61 60 59 58 58 57 57 58 58 58 58 58 58 58 56 53 51 49 44 43 46 49 50 50 49 47 46 46 45 45 45 46 45 43 42 44 46 46 47 48 50 51 53 54 54 53 50 46 43
65 65 65 65 65 64 64 65 65 66 66 67 67 68 68 68 68 68 67 67 66 65 64 62 61 60 59 59 58 58 56 56 55 55 55 55 55 55 54 52 50 49 46 43 44 47 49 49 49 47 46 45 45 46 46 45 44 43 42 42 44 46 47 47 49 50 51 53 54 53 50 45 41 40
66 65 65 66 66 66 66 67 68 68 69 70 70 71 71 70 70 70 69 68 67 66 64 62 62 61 61 60 57 55 52 50 50 50 50 50 51 51 51 50 50 48 46 46 48 48 47 46 46 46 46 47 46 45 43 41 40 40 42 44 45 46 46 47 49 50 51 52 52 50 46 41 39 40
66 66 66 67 67 68 69 70 71 72 73 73 74 74 74 73 72 71 69 67 66 65 63 61 60 59 58 56 54 51 49 48 48 49 50 51 51 52 51 50 48 47 46 46 47 48 47 47 46 46 45 43 41 39 38 38 39 40 43 44 45 45 46 47 49 50 51 50 48 46 42 40 39 40
68 69 69 70 71 72 73 73 74 74 75 75 75 75 75 74 73 72 70 67 65 64 61 58 57 56 54 52 51 50 49 50 51 51 52 52 51 49 48 46 45 44 43 42 43 44 44 43 41 39 38 36 35 35 36 38 39 40 42 43 44 45 46 47 49 50 49 46 44 42 42 40 40 41
71 72 72 73 73 74 74 75 75 75 75 75 75 74 74 73 71 70 68 66 64 61 57 54 54 54 54 52 51 51 49 49 49 49 47 46 44 44 43 41 40 38 36 35 35 35 34 33 32 32 33 33 34 35 37 38 38 39 41 43 45 46 47 48 48 47 44 42 41 42 43 42 41 41
70 70 70 70 70 71 71 72 71 71 71 71 70 70 69 68 67 65 63 61 59 55 53 52 51 52 53 52 51 50 47 45 44 43 41 40 40 40 39 37 34 32 31 30 29 28 27 28 30 32 34 35 35 36 36 35 35 38 41 43 45 47 48 47 44 41 39 39 39 42 44 44 42 40
64 64 63 63 63 64 65 65 65 65 65 64 64 63 63 62 61 60 58 57 53 49 49 51 51 51 51 51 50 48 45 42 40 39 37 37 38 38 36 33 32 31 30 29 27 26 27 30 32 34 36 36 36 35 34 33 35 39 43 44 46 46 45 43 40 37 37 38 39 41 44 44 42 39
56 56 56 55 55 55 56 57 57 57 57 57 57 57 56 56 56 55 54 53 49 44 43 46 48 49 48 46 44 43 41 39 38 37 37 38 37 35 33 33 33 32 31 30 28 28 29 31 33 34 34 33 33 32 32 33 36 40 43 44 44 42 40 38 37 36 36 37 38 40 42 41 38 34
48 48 48 49 49 48 48 49 49 49 48 47 48 48 49 49 50 50 49 49 47 44 45 46 47 46 44 40 38 37 36 35 36 37 38 38 37 34 33 34 34 33 31 29 29 29 29 30 31 30 30 29 30 32 34 36 39 41 42 41 39 37 36 35 35 35 36 36 38 40 39 36 32 31
46 46 46 47 47 47 47 47 46 45 43 41 40 40 40 41 43 44 45 45 45 45 48 49 48 46 42 37 33 30 29 29 32 34 35 36 35 34 34 34 34 32 29 28 28 28 28 28 28 27 27 27 29 33 36 39 40 40 39 37 35 34 34 33 34 34 35 36 38 38 34 30 29 29
47 48 49 49 50 50 50 50 49 46 43 40 37 35 34 34 36 38 38 39 41 43 44 46 47 46 41 36 30 26 25 28 30 31 32 33 33 33 33 33 31 29 28 27 26 26 26 26 25 24 25 27 31 35 38 39 38 36 34 33 33 33 33 33 33 34 35 36 36 33 29 28 29 29
51 53 54 55 55 55 55 54 52 50 47 42 39 36 33 31 32 32 32 32 37 41 43 42 41 39 37 35 33 28 25 26 29 31 31 30 29 30 30 29 28 27 26 25 25 24 24 23 22 23 26 29 32 36 37 37 34 32 30 31 32 33 33 32 32 33 34 33 31 28 27 27 28 28
53 54 55 56 56 56 56 55 54 53 51 47 42 39 35 32 30 31 33 34 36 40 41 38 35 34 33 34 34 30 24 25 28 30 27 25 25 26 26 26 25 25 24 24 24 23 21 21 21 23 26 30 33 36 35 33 31 29 28 30 31 32 32 31 31 32 31 29 27 26 26 26 25 25
46 46 46 47 48 48 48 49 49 50 50 49 45 41 38 35 31 31 35 39 41 42 42 41 40 40 38 37 36 33 29 29 29 27 23 22 23 24 24 25 25 24 24 24 23 21 19 20 22 23 26 30 33 34 32 30 28 26 27 29 31 31 30 30 30 30 28 26 24 24 24 24 24 23
34 34 35 35 36 36 37 38 40 42 45 47 46 42 38 36 34 33 34 38 40 42 44 46 47 48 47 45 43 40 36 33 29 26 23 23 24 24 25 26 26 25 24 23 21 19 19 20 21 23 26 29 31 31 30 27 26 25 27 29 30 29 29 29 29 28 26 23 22 23 22 22 22 22
25 26 26 25 24 24 24 26 28 31 36 41 43 41 38 36 36 35 35 36 37 38 39 40 42 44 45 44 43 40 37 35 31 27 25 26 26 26 26 26 26 24 23 21 20 19 19 19 20 22 25 27 29 29 28 26 24 24 26 28 28 28 28 28 28 26 23 21 21 21 21 20 21 20
Wind_Direction
268 269 270 269 269 268 268 267 267 267 267 267 268 268 267 268 268 269 270 270 271 271 271 271 271 271 271 272 273 275 276 277 278 278 279 280 281 282 282 283 284 286 288 290 291 293 294 296 298 301 302 302 303 304 306 307 309 309 310 309 309 308 308 307 306 305 305 306 306 307 307 307 307 307
266 268 269 269 269 269 268 268 267 267 266 266 267 267 267 268 269 269 268 268 268 269 270 270 271 271 273 275 277 278 278 279 279 280 280 281 282 282 283 283 284 285 286 287 288 290 292 294 296 296 295 294 293 294 295 298 300 301 302 301 300 300 299 299 299 300 300 301 302 302 302 302 302 302
263 266 268 269 269 269 267 266 265 265 265 265 265 266 266 267 269 270 270 269 269 270 272 273 274 275 276 278 279 279 279 279 280 280 281 282 283 283 284 284 284 285 285 286 286 286 287 288 288 287 285 283 283 283 285 289 292 293 292 292 291 291 291 292 293 294 296 297 299 299 300 300 300 299
260 263 266 267 269 269 269 267 266 267 267 267 266 266 266 267 268 270 271 272 273 273 274 276 276 277 277 278 279 279 279 279 279 280 281 282 283 284 285 285 285 284 284 284 284 284 283 282 281 279 277 277 279 281 284 288 290 290 289 288 287 287 288 290 293 295 298 300 301 302 302 301 300 300
260 262 265 265 267 268 269 269 270 270 271 271 271 270 270 270 269 270 270 271 272 273 274 275 275 275 275 275 276 278 279 279 279 280 281 282 284 285 286 286 285 284 284 283 283 283 282 281 279 277 275 275 277 281 285 288 290 290 289 289 288 288 290 292 296 299 301 302 303 302 302 301 300 299
263 264 265 265 266 267 268 268 268 269 270 270 271 272 272 272 271 271 271 272 273 274 274 274 274 273 274 275 276 277 277 277 277 279 280 282 284 286 286 286 285 284 283 282 282 282 281 280 278 277 276 275 277 279 282 285 287 288 289 289 289 291 293 295 298 300 301 302 302 301 301 300 300 299
265 266 266 266 265 264 264 264 264 265 267 268 270 271 272 273 275 276 277 278 278 277 277 277 277 276 277 278 278 278 277 276 277 279 282 285 286 286 286 285 285 284 283 282 281 280 278 277 276 276 275 276 277 278 280 282 285 287 288 289 291 293 296 298 299 300 301 301 301 301 300 300 300 299
263 265 266 267 265 264 263 263 263 264 266 268 271 274 276 278 280 281 281 281 280 280 280 280 280 280 281 281 281 280 279 279 280 282 284 286 288 288 287 286 286 286 285 284 282 279 277 275 275 276 276 277 278 279 280 282 284 287 288 291 293 295 296 298 299 300 300 300 300 300 299 299 299 298
257 259 262 263 264 264 264 265 267 268 270 271 273 275 277 278 279 279 280 280 280 281 282 282 282 282 282 281 280 280 281 282 283 284 285 287 288 289 288 287 286 286 285 285 283 281 279 278 277 277 278 279 279 280 282 284 286 287 289 291 292 293 295 296 296 296 297 297 297 297 297 296 296 295
253 255 257 258 259 261 263 265 267 267 268 270 271 272 272 271 272 272 273 275 277 279 281 281 281 281 281 280 279 279 280 281 283 284 286 287 288 288 288 288 287 286 285 283 282 282 281 281 280 279 279 279 280 282 284 286 287 288 289 290 290 291 292 293 294 294 295 295 294 294 294 294 293 292
256 255 254 255 257 259 261 263 264 265 267 268 269 270 269 269 268 268 268 271 273 276 278 278 278 278 279 279 279 279 280 281 283 284 286 288 288 287 286 286 287 286 285 283 281 280 279 279 279 279 279 280 281 283 286 287 287 289 289 290 290 291 292 293 294 295 295 295 294 294 294 294 293 292
261 259 258 259 259 261 262 263 264 266 268 269 269 268 267 265 265 266 268 271 272 273 274 274 274 275 276 277 279 281 282 284 286 288 289 290 290 290 289 287 286 286 286 285 283 279 278 278 278 279 280 280 282 284 285 285 286 288 289 289 290 290 291 292 294 294 293 293 293 294 294 294 294 292
262 261 261 261 261 261 262 263 265 266 268 270 270 269 268 267 267 269 271 273 275 276 276 275 274 273 274 275 277 281 285 287 289 290 292 293 294 294 292 290 288 288 288 288 286 282 279 279 279 280 280 281 283 284 283 282 283 285 287 288 289 290 291 292 292 293 292 292 292 292 292 292 292 292
259 260 260 260 260 259 260 263 265 267 270 272 273 274 275 276 278 279 280 281 282 284 285 283 280 277 275 276 279 284 287 289 290 291 292 293 293 293 293 291 290 289 288 288 287 285 282 281 280 280 281 282 282 281 279 278 280 284 286 287 289 290 290 291 292 292 292 292 293 292 292 291 291 291
259 259 259 259 258 260 262 265 267 270 273 274 275 275 276 278 281 283 286 287 287 288 288 287 284 281 278 279 283 288 290 290 291 291 292 292 293 294 294 293 291 289 287 286 286 285 284 282 281 281 282 282 281 281 279 278 280 282 284 286 288 288 289 290 290 290 290 291 292 293 292 290 290 290
263 262 261 260 259 261 263 266 269 271 274 275 276 275 275 276 279 283 287 288 289 289 288 286 284 282 280 282 285 289 292 292 291 291 291 292 295 297 296 295 292 290 288 287 286 285 284 283 282 282 282 282 281 280 278 277 278 280 283 285 287 287 287 288 289 289 288 287 287 290 291 290 290 291
266 266 266 265 264 264 265 267 270 272 274 276 277 277 278 279 281 283 285 288 290 289 286 285 285 285 285 285 286 288 289 289 290 290 288 290 296 298 298 297 295 291 289 288 287 286 286 284 282 281 281 281 280 279 277 276 277 279 282 285 286 286 285 286 286 287 286 284 283 285 288 291 293 294
267 267 268 269 270 270 270 271 273 274 275 277 277 278 279 280 282 283 283 285 287 286 284 285 287 289 289 288 288 289 289 289 290 289 288 292 297 299 298 297 295 292 290 289 288 287 287 286 283 282 281 280 279 278 277 277 279 281 283 284 284 283 283 284 285 285 284 282 282 283 286 290 294 296
267 269 270 272 273 274 274 274 275 275 276 278 278 280 281 282 282 282 282 283 284 283 282 283 286 288 289 290 291 291 288 286 286 286 288 293 296 297 297 296 294 292 290 290 291 291 289 287 284 282 282 280 279 278 278 279 280 281 282 282 281 281 282 283 284 284 283 283 284 286 287 291 295 298
267 268 270 272 273 275 276 277 277 277 277 278 279 280 281 282 282 281 281 281 281 281 280 282 284 285 286 289 291 290 287 284 284 285 288 291 292 294 295 295 294 292 290 289 291 292 291 288 284 282 281 280 279 279 279 280 280 281 281 280 280 280 281 284 286 287 287 286 288 290 292 296 299 301
267 269 270 272 273 275 276 278 278 278 278 278 279 279 280 281 281 280 279 278 278 277 277 279 283 284 285 286 287 288 287 286 286 286 287 289 290 291 292 292 291 291 290 290 291 291 290 287 283 282 281 281 281 281 281 281 281 280 280 280 280 281 283 286 288 289 290 291 292 295 298 300 303 303
268 269 271 272 273 274 275 277 277 278 278 277 277 277 277 278 279 278 276 275 274 274 276 278 281 282 283 284 285 286 285 284 286 287 285 285 286 287 288 288 287 288 289 289 290 290 288 285 282 280 280 280 281 281 281 281 281 280 280 280 281 283 286 288 290 291 293 295 297 299 301 303 304 304
268 269 270 271 273 273 274 275 276 277 277 277 276 276 276 278 278 277 275 274 274 274 274 276 278 280 281 283 284 285 284 283 284 284 282 282 282 282 282 282 283 286 286 287 288 287 285 284 280 277 277 278 279 281 282 282 281 281 281 282 284 286 288 290 292 294 296 298 300 301 302 303 303 303
267 268 269 270 271 271 272 273 274 275 276 276 276 276 277 278 278 277 276 275 275 274 274 275 277 279 281 282 283 283 281 280 281 281 281 281 280 279 278 279 281 284 285 286 287 285 284 284 280 276 275 276 278 281 283 283 283 282 282 283 285 287 289 291 293 295 298 300 302 302 302 302 302 302
266 267 268 269 269 269 269 270 271 272 273 274 274 275 275 275 275 275 275 275 275 275 275 275 277 278 280 281 282 281 279 278 278 278 280 280 279 278 278 278 280 283 283 284 284 283 283 284 280 275 274 275 278 282 284 283 283 283 283 284 286 288 290 292 295 297 300 301 301 301 301 301 301 302
266 267 267 268 269 269 269 269 269 270 271 272 272 272 272 271 271 272 272 273 274 275 275 275 276 277 278 279 280 280 278 278 278 278 278 278 277 277 278 278 279 281 281 282 283 283 283 283 279 274 272 274 280 285 284 283 283 284 285 286 288 289 291 293 296 298 299 299 298 299 299 300 301 302
266 267 267 268 269 269 269 270 270 270 270 270 270 270 269 269 269 269 270 271 273 274 274 275 276 277 277 278 277 277 277 278 278 278 278 278 277 277 277 277 278 279 280 282 282 280 280 280 277 272 272 277 283 285 283 282 284 286 289 289 289 290 292 294 296 297 297 297 297 297 298 299 301 302
267 267 268 268 268 269 270 270 270 269 269 269 269 269 269 269 269 270 271 272 273 273 274 274 275 275 275 275 275 276 277 278 278 278 278 277 276 276 276 277 278 279 280 281 279 276 277 276 274 273 276 281 283 282 282 284 286 288 289 289 289 290 292 294 295 296 296 296 296 297 298 300 301 302
269 269 269 270 270 270 270 270 270 270 270 269 269 269 269 270 270 271 272 272 272 273 273 273 274 274 274 274 275 276 277 277 277 277 276 275 274 274 275 276 277 278 278 279 276 274 275 275 275 276 280 281 281 282 284 287 288 288 288 287 288 290 292 293 294 295 295 296 297 297 298 300 302 302
270 270 270 270 271 271 271 271 271 271 271 271 271 271 271 271 272 272 272 272 272 272 272 272 272 273 273 274 275 276 276 275 275 274 274 273 273 274 275 276 276 276 274 272 270 271 272 274 275 278 280 282 284 286 287 288 287 286 286 286 287 288 290 292 293 294 296 297 297 297 299 301 302 301
272 272 272 271 271 271 271 271 271 271 271 272 272 272 272 272 272 272 272 272 271 271 271 271 271 271 273 273 273 273 272 271 271 271 272 272 273 273 275 276 276 275 271 267 266 268 272 276 279 282 283 285 286 286 286 285 284 285 286 286 286 287 290 292 293 295 296 297 297 298 300 302 303 301
274 273 273 272 272 272 271 271 270 270 270 270 270 271 271 271 271 271 271 271 271 270 270 270 270 270 271 270 269 268 268 268 269 270 271 272 273 274 275 277 276 275 273 270 269 271 275 279 281 283 283 283 284 283 283 283 284 285 285 285 286 288 291 292 294 296 296 296 296 299 303 305 303 301
275 274 273 273 272 271 270 270 269 269 268 269 269 269 269 270 270 270 270 270 270 270 271 270 269 269 268 267 266 267 266 267 268 269 270 271 273 274 275 276 276 276 276 275 275 275 277 278 279 280 280 281 281 281 282 283 285 285 285 286 288 290 292 294 296 296 296 296 298 302 306 306 303 300
274 273 272 271 270 270 269 268 268 267 267 267 267 268 268 268 268 269 269 269 270 271 271 270 268 268 267 266 268 269 268 266 265 267 269 270 272 273 274 275 276 277 277 277 277 277 277 277 279 279 280 280 280 280 281 283 284 284 286 288 290 292 294 296 297 296 296 298 302 306 307 307 304 300
273 272 271 271 270 270 269 269 268 268 268 267 267 267 267 267 267 267 267 267 268 268 268 267 267 266 267 269 269 269 266 263 263 264 266 267 269 270 272 273 274 275 277 278 277 275 277 281 283 282 282 282 283 283 283 284 285 286 288 290 293 295 297 297 297 296 297 300 304 306 307 307 306 302
275 274 273 272 272 271 270 270 269 269 268 267 267 266 266 266 266 265 264 264 263 261 262 265 266 266 267 269 268 265 262 260 260 261 262 262 264 266 268 269 270 272 274 273 269 272 280 285 285 285 287 288 288 288 287 288 289 290 292 294 296 297 298 297 297 298 301 303 305 307 308 308 307 304
277 276 275 274 273 272 272 272 271 269 269 268 267 266 264 263 263 262 261 260 258 253 253 257 262 265 266 265 261 258 257 256 257 258 258 259 262 264 265 265 267 269 268 265 264 272 281 285 285 287 289 289 289 290 291 291 293 294 295 297 298 297 297 298 299 301 303 305 306 308 309 308 306 304
277 277 276 275 274 273 273 273 273 272 271 270 268 266 264 262 260 258 257 256 253 247 243 245 254 261 261 256 253 253 254 256 258 259 259 260 263 264 262 263 266 268 266 264 267 274 280 283 285 287 287 286 288 291 293 295 296 296 297 297 297 297 299 300 302 304 305 306 308 309 310 308 306 305
278 277 276 275 274 273 273 272 273 272 272 271 269 266 264 262 259 257 253 250 248 244 241 242 249 254 251 248 249 252 254 258 261 261 261 262 261 259 259 263 266 266 264 265 271 276 279 282 283 284 284 287 291 294 296 298 299 299 298 297 298 300 302 304 306 308 308 309 310 311 310 309 308 308
281 279 278 276 275 273 271 270 269 269 268 267 265 264 264 263 261 255 250 248 247 245 243 245 247 246 243 241 243 247 254 259 260 260 261 260 257 256 259 263 265 262 261 266 272 275 278 280 281 283 287 291 295 297 298 299 300 299 298 299 302 305 308 309 310 310 310 311 311 311 311 311 311 312
282 281 280 278 276 274 271 269 266 264 263 261 260 259 261 264 261 251 242 242 243 239 238 242 242 239 237 239 239 243 256 264 262 260 260 258 256 257 258 259 260 260 262 267 271 273 276 279 281 285 291 295 299 299 299 299 298 296 297 301 305 309 311 312 312 311 311 311 311 311 311 311 313 316
284 283 281 279 276 274 270 267 263 260 256 253 253 253 255 259 259 248 239 238 235 227 224 226 227 228 235 240 237 240 259 272 267 261 257 253 250 251 252 254 257 260 262 265 268 270 273 276 281 288 295 300 301 300 300 299 296 296 299 305 309 312 313 313 312 311 311 310 309 310 311 312 315 318
289 288 286 283 280 276 272 267 261 256 250 246 245 247 249 252 254 250 244 243 242 238 236 238 239 241 246 248 245 248 263 273 267 257 252 247 244 245 249 254 256 257 259 262 265 266 269 275 283 292 299 302 301 300 299 297 295 297 304 310 312 314 315 314 312 311 310 309 309 310 312 315 317 318
298 296 293 292 289 283 276 268 260 253 246 241 238 239 241 244 246 247 247 247 249 250 251 253 255 256 258 259 258 260 266 269 263 254 249 247 247 249 253 256 255 255 258 259 259 262 268 277 288 296 301 303 302 301 299 296 295 300 307 312 315 316 316 314 313 312 310 310 311 312 314 316 318 317
306 303 299 297 297 293 284 272 261 253 245 237 233 232 234 237 240 243 246 249 252 255 257 259 261 261 262 262 262 262 263 263 258 250 246 247 250 253 255 254 253 254 254 254 255 261 270 280 290 298 304 305 304 303 300 296 296 302 309 314 317 317 316 315 315 313 310 311 313 314 315 318 320 321
Height
5788 5788 5789 5789 5789 5790 5789 5789 5789 5789 5789 5790 5790 5790 5790 5790 5790 5790 5790 5790 5790 5789 5789 5789 5789 5789 5789 5789 5789 5789 5788 5787 5786 5786 5786 5785 5785 5784 5784 5784 5784 5784 5783 5783 5783 5782 5782 5781 5781 5781 5780 5779 5779 5779 5778 5778 5778 5778 5778 5777 5777 5777 5777 5776 5776 5776 5776 5775 5775 5774 5774 5773 5772 5772
5786 5786 5787 5787 5787 5787 5787 5787 5787 5788 5788 5788 5789 5789 5789 5788 5788 5788 5789 5788 5788 5788 5788 5788 5788 5788 5788 5788 5787 5787 5786 5785 5784 5784 5784 5783 5783 5782 5782 5782 5781 5781 5781 5781 5781 5780 5780 5780 5779 5779 5778 5778 5778 5777 5777 5777 5777 5776 5776 5776 5776 5775 5775 5774 5774 5774 5773 5773 5773 5772 5771 5771 5770 5769
5784 5784 5785 5785 5785 5785 5785 5786 5786 5786 5786 5787 5787 5787 5787 5787 5787 5787 5787 5787 5786 5786 5786 5786 5786 5786 5786 5786 5785 5785 5784 5783 5782 5782 5781 5781 5781 5780 5780 5780 5780 5779 5779 5779 5779 5779 5778 5778 5777 5777 5776 5776 5776 5776 5775 5775 5775 5775 5774 5774 5774 5773 5773 5772 5772 5771 5771 5770 5770 5769 5768 5768 5767 5766
5782 5782 5783 5783 5784 5784 5784 5784 5784 5785 5785 5785 5785 5785 5785 5785 5785 5785 5785 5784 5784 5784 5784 5784 5784 5784 5784 5784 5783 5782 5781 5781 5780 5779 5779 5779 5779 5779 5778 5778 5778 5777 5777 5777 5776 5776 5776 5776 5775 5775 5774 5774 5774 5773 5773 5773 5773 5772 5772 5772 5771 5771 5771 5770 5769 5769 5768 5767 5767 5766 5765 5764 5763 5763
5780 5781 5781 5781 5782 5782 5782 5782 5783 5783 5783 5783 5783 5783 5783 5783 5783 5783 5782 5782 5782 5782 5782 5782 5782 5782 5781 5781 5781 5780 5779 5778 5777 5777 5777 5776 5776 5776 5776 5776 5776 5776 5775 5775 5775 5774 5774 5773 5773 5772 5772 5772 5771 5771 5771 5770 5770 5770 5769 5769 5768 5768 5768 5767 5766 5766 5765 5764 5763 5762 5761 5760 5759 5759
5778 5779 5779 5779 5780 5780 5780 5781 5781 5781 5781 5781 5781 5780 5781 5781 5781 5781 5780 5780 5780 5780 5780 5779 5779 5779 5779 5778 5778 5777 5777 5776 5775 5774 5774 5774 5774 5774 5774 5774 5774 5773 5773 5773 5773 5772 5772 5771 5770 5770 5769 5769 5769 5768 5768 5767 5767 5766 5766 5765 5765 5764 5764 5763 5763 5762 5762 5761 5760 5759 5757 5756 5755 5755
5777 5777 5777 5778 5778 5779 5779 5779 5779 5779 5779 5779 5778 5778 5778 5778 5778 5779 5778 5778 5778 5778 5777 5777 5777 5777 5776 5776 5776 5775 5774 5774 5773 5773 5772 5772 5772 5772 5772 5771 5771 5771 5771 5770 5770 5770 5769 5768 5768 5767 5767 5766 5766 5765 5765 5764 5764 5763 5762 5762 5761 5761 5760 5760 5759 5759 5758 5757 5756 5755 5754 5752 5751 5750
5775 5775 5776 5776 5776 5777 5777 5777 5777 5777 5777 5777 5777 5777 5776 5776 5776 5776 5776 5776 5775 5775 5775 5775 5774 5774 5774 5773 5773 5772 5772 5771 5771 5771 5770 5770 5770 5769 5769 5769 5769 5768 5768 5767 5767 5767 5766 5766 5765 5764 5763 5763 5762 5762 5761 5761 5760 5760 5759 5758 5758 5757 5756 5756 5755 5755 5754 5753 5752 5751 5750 5748 5747 5746
5774 5774 5774 5774 5775 5775 5775 5775 5776 5776 5776 5776 5775 5775 5775 5774 5774 5774 5773 5773 5773 5773 5772 5772 5771 5771 5771 5771 5770 5770 5769 5769 5768 5768 5768 5767 5767 5767 5766 5766 5766 5765 5765 5764 5764 5763 5763 5762 5762 5761 5760 5759 5759 5758 5758 5757 5756 5756 5755 5754 5754 5753 5752 5752 5751 5751 5750 5749 5748 5747 5746 5744 5743 5742
5772 5772 5773 5773 5773 5773 5773 5773 5774 5774 5774 5774 5774 5773 5773 5773 5772 5772 5772 5771 5771 5770 5770 5769 5769 5768 5768 5768 5768 5767 5767 5766 5765 5765 5764 5764 5764 5764 5763 5763 5762 5762 5761 5761 5760 5760 5759 5758 5758 5757 5756 5756 5755 5754 5754 5753 5752 5751 5751 5751 5750 5749 5749 5748 5747 5746 5745 5744 5743 5742 5741 5739 5738 5737
5770 5771 5771 5771 5771 5771 5771 5771 5771 5771 5771 5771 5771 5771 5771 5771 5771 5770 5770 5770 5769 5769 5768 5767 5767 5766 5766 5765 5765 5765 5764 5764 5763 5762 5761 5761 5761 5760 5760 5760 5759 5758 5758 5757 5756 5755 5755 5754 5753 5753 5752 5751 5751 5750 5750 5749 5748 5747 5747 5746 5746 5745 5744 5743 5742 5741 5739 5738 5737 5736 5735 5733 5732 5731
5768 5768 5769 5769 5769 5769 5769 5769 5769 5769 5769 5769 5768 5768 5768 5768 5768 5768 5767 5767 5767 5766 5766 5765 5765 5764 5764 5763 5763 5762 5762 5761 5760 5759 5758 5758 5757 5757 5757 5756 5756 5755 5754 5753 5752 5751 5751 5750 5749 5749 5748 5747 5747 5746 5746 5745 5744 5743 5743 5742 5741 5740 5739 5738 5737 5736 5734 5733 5731 5730 5729 5727 5726 5725
5766 5766 5766 5766 5766 5766 5766 5766 5766 5766 5766 5766 5766 5766 5766 5765 5765 5765 5765 5765 5764 5764 5763 5763 5762 5762 5762 5761 5760 5760 5759 5758 5757 5756 5756 5755 5754 5754 5753 5752 5751 5750 5750 5749 5748 5747 5747 5746 5746 5745 5744 5743 5743 5742 5741 5741 5740 5739 5738 5738 5737 5736 5735 5733 5732 5730 5729 5727 5726 5724 5723 5722 5720 5719
5763 5763 5764 5764 5764 5764 5763 5763 5763 5763 5763 5763 5763 5763 5762 5762 5762 5761 5761 5761 5760 5760 5760 5759 5759 5759 5758 5758 5757 5757 5756 5755 5754 5754 5753 5752 5751 5750 5749 5748 5747 5747 5746 5745 5744 5743 5743 5742 5742 5741 5740 5739 5739 5738 5737 5736 5735 5735 5734 5733 5732 5731 5730 5728 5727 5725 5723 5722 5720 5719 5717 5716 5715 5713
5760 5760 5761 5761 5761 5761 5760 5760 5760 5759 5759 5759 5759 5758 5758 5758 5757 5757 5757 5756 5756 5756 5756 5755 5755 5755 5755 5754 5753 5753 5752 5752 5751 5750 5749 5748 5747 5747 5746 5744 5743 5742 5742 5741 5740 5739 5738 5738 5737 5736 5735 5735 5734 5733 5732 5731 5730 5729 5729 5728 5727 5726 5724 5723 5721 5719 5718 5716 5715 5714 5712 5711 5709 5708
5757 5757 5757 5757 5757 5757 5756 5756 5756 5755 5755 5755 5755 5755 5754 5754 5753 5753 5752 5752 5752 5752 5752 5752 5751 5751 5751 5750 5749 5748 5748 5747 5746 5746 5745 5744 5743 5742 5742 5740 5739 5738 5737 5736 5735 5734 5733 5733 5732 5731 5730 5730 5729 5728 5727 5725 5724 5724 5723 5722 5721 5720 5718 5717 5715 5713 5712 5711 5709 5708 5707 5706 5704 5703
5753 5753 5753 5753 5752 5752 5752 5751 5751 5751 5751 5751 5751 5751 5750 5750 5749 5748 5748 5748 5748 5748 5748 5748 5747 5747 5746 5746 5745 5744 5743 5742 5741 5740 5739 5739 5739 5738 5737 5736 5735 5733 5732 5731 5730 5729 5729 5727 5726 5726 5725 5724 5723 5722 5720 5719 5718 5718 5717 5716 5715 5714 5712 5711 5709 5707 5706 5704 5703 5702 5700 5699 5698 5696
5748 5748 5748 5748 5747 5747 5747 5747 5747 5746 5746 5746 5746 5746 5745 5745 5745 5744 5743 5743 5744 5743 5743 5743 5742 5742 5742 5741 5740 5739 5738 5737 5736 5735 5733 5733 5734 5733 5733 5732 5730 5729 5728 5727 5726 5725 5724 5723 5721 5720 5719 5718 5717 5716 5714 5713 5712 5712 5711 5709 5708 5707 5706 5705 5703 5701 5700 5698 5697 5695 5694 5693 5691 5689
5743 5743 5743 5743 5743 5742 5742 5742 5741 5741 5741 5741 5740 5740 5740 5740 5739 5739 5738 5738 5738 5738 5738 5738 5737 5736 5736 5736 5735 5735 5733 5732 5731 5730 5728 5728 5728 5727 5727 5726 5725 5724 5723 5721 5720 5719 5718 5717 5716 5715 5713 5712 5711 5710 5708 5707 5706 5705 5704 5703 5702 5701 5700 5698 5697 5695 5694 5692 5690 5689 5688 5686 5684 5681
5739 5738 5738 5738 5738 5737 5737 5736 5736 5736 5735 5735 5735 5734 5734 5734 5734 5733 5732 5732 5732 5732 5732 5731 5731 5731 5731 5730 5730 5730 5729 5728 5727 5725 5724 5723 5722 5721 5720 5719 5718 5718 5717 5716 5715 5714 5712 5711 5710 5708 5707 5706 5705 5703 5702 5701 5700 5699 5698 5697 5696 5695 5693 5692 5690 5689 5687 5686 5684 5683 5681 5679 5676 5673
5734 5734 5733 5733 5733 5733 5732 5732 5731 5730 5730 5730 5729 5729 5728 5728 5728 5727 5727 5726 5725 5725 5725 5725 5725 5725 5725 5724 5724 5723 5722 5722 5721 5720 5718 5717 5715 5714 5713 5713 5712 5711 5710 5710 5709 5708 5707 5705 5703 5702 5700 5699 5698 5696 5695 5694 5693 5693 5691 5690 5689 5688 5687 5685 5683 5682 5680 5679 5677 5676 5673 5671 5668 5665
5728 5728 5727 5727 5727 5727 5726 5726 5725 5725 5724 5724 5724 5724 5723 5723 5723 5722 5721 5720 5720 5720 5719 5719 5719 5718 5718 5718 5717 5716 5716 5715 5715 5714 5712 5711 5710 5708 5707 5706 5705 5705 5704 5703 5702 5701 5700 5699 5697 5695 5694 5692 5691 5689 5688 5687 5686 5686 5685 5684 5683 5682 5680 5678 5676 5675 5674 5672 5670 5668 5666 5663 5660 5657
5721 5721 5721 5720 5720 5720 5719 5719 5718 5717 5717 5717 5718 5718 5717 5717 5717 5716 5714 5713 5714 5714 5713 5713 5712 5712 5712 5712 5711 5710 5709 5708 5708 5707 5706 5705 5704 5702 5700 5699 5699 5699 5698 5697 5695 5694 5693 5692 5690 5689 5687 5686 5685 5683 5681 5680 5680 5679 5678 5677 5676 5675 5673 5671 5670 5668 5667 5665 5663 5660 5658 5655 5653 5650
5715 5714 5714 5713 5712 5712 5712 5711 5710 5709 5708 5708 5709 5709 5709 5709 5709 5708 5706 5706 5707 5706 5706 5705 5705 5705 5704 5704 5704 5704 5702 5701 5700 5699 5698 5698 5697 5695 5694 5693 5692 5692 5692 5690 5689 5687 5686 5685 5684 5682 5681 5680 5679 5677 5675 5673 5673 5673 5671 5670 5669 5668 5666 5665 5663 5661 5659 5657 5655 5653 5650 5648 5645 5642
5707 5707 5706 5705 5704 5704 5704 5704 5703 5702 5701 5700 5700 5701 5701 5701 5700 5700 5699 5698 5698 5697 5697 5697 5697 5697 5697 5696 5696 5696 5696 5694 5693 5692 5691 5690 5689 5688 5687 5686 5686 5685 5685 5684 5682 5680 5679 5678 5677 5676 5675 5674 5673 5672 5669 5666 5666 5666 5665 5664 5663 5661 5660 5659 5656 5654 5653 5650 5648 5645 5643 5640 5638 5634
5700 5699 5699 5698 5696 5695 5695 5696 5695 5695 5693 5693 5693 5694 5694 5693 5692 5692 5691 5690 5690 5689 5689 5689 5689 5689 5689 5688 5688 5688 5687 5686 5685 5684 5683 5683 5682 5681 5680 5679 5678 5678 5677 5676 5676 5674 5672 5671 5670 5669 5668 5668 5667 5666 5664 5661 5659 5659 5658 5657 5656 5655 5654 5652 5650 5648 5646 5644 5641 5638 5635 5633 5630 5626
5692 5691 5690 5690 5688 5687 5686 5686 5686 5686 5685 5685 5685 5685 5685 5684 5684 5683 5683 5683 5682 5682 5681 5681 5680 5680 5680 5680 5680 5679 5679 5678 5677 5676 5676 5675 5674 5673 5672 5672 5671 5671 5670 5670 5669 5668 5666 5665 5664 5663 5662 5662 5662 5660 5659 5656 5654 5653 5652 5650 5649 5648 5647 5646 5644 5642 5640 5637 5634 5631 5628 5625 5622 5619
5683 5682 5682 5681 5680 5678 5677 5677 5676 5677 5677 5676 5676 5676 5675 5675 5674 5674 5675 5674 5673 5673 5672 5672 5672 5672 5672 5671 5671 5670 5670 5670 5669 5669 5668 5668 5667 5665 5665 5664 5665 5664 5664 5663 5663 5662 5660 5659 5658 5657 5657 5656 5656 5654 5653 5652 5649 5648 5647 5644 5641 5641 5640 5639 5638 5635 5633 5630 5626 5623 5621 5618 5615 5612
5673 5673 5672 5672 5671 5670 5668 5667 5666 5666 5667 5667 5666 5666 5666 5665 5665 5666 5665 5664 5664 5663 5663 5663 5663 5663 5662 5662 5662 5662 5662 5662 5661 5661 5660 5660 5659 5658 5657 5658 5658 5657 5657 5657 5656 5655 5653 5652 5652 5651 5651 5650 5649 5648 5648 5646 5644 5642 5641 5639 5635 5634 5634 5633 5631 5629 5626 5622 5619 5616 5614 5611 5608 5605
5663 5663 5662 5662 5661 5660 5659 5657 5657 5656 5656 5655 5655 5655 5655 5655 5656 5656 5655 5654 5654 5654 5654 5654 5654 5654 5653 5653 5653 5654 5654 5653 5653 5652 5652 5652 5651 5651 5650 5651 5651 5650 5650 5650 5649 5647 5647 5646 5646 5645 5645 5644 5643 5642 5641 5640 5638 5636 5634 5633 5630 5628 5628 5627 5625 5622 5619 5615 5611 5609 5607 5605 5602 5599
5652 5652 5652 5651 5650 5649 5649 5648 5647 5646 5646 5645 5644 5644 5644 5645 5645 5646 5645 5645 5644 5644 5645 5645 5645 5645 5645 5645 5645 5645 5645 5645 5645 5645 5645 5644 5644 5644 5644 5644 5644 5643 5643 5643 5642 5641 5641 5640 5640 5639 5638 5637 5637 5636 5634 5634 5633 5630 5628 5626 5625 5623 5622 5621 5618 5616 5612 5608 5605 5602 5600 5598 5596 5592
5641 5641 5641 5640 5639 5638 5637 5637 5636 5635 5635 5634 5634 5633 5633 5634 5635 5635 5635 5635 5634 5634 5635 5636 5636 5636 5637 5637 5637 5637 5638 5638 5638 5638 5638 5637 5637 5637 5637 5637 5637 5636 5636 5636 5636 5636 5635 5634 5633 5633 5632 5632 5631 5630 5628 5627 5627 5625 5622 5620 5618 5618 5617 5615 5612 5609 5606 5602 5599 5596 5593 5592 5589 5586
5630 5629 5629 5629 5627 5626 5625 5625 5624 5624 5624 5623 5623 5623 5622 5623 5624 5624 5625 5625 5626 5626 5627 5627 5627 5628 5629 5629 5629 5630 5630 5631 5631 5631 5631 5631 5631 5631 5631 5631 5630 5630 5630 5630 5630 5629 5629 5629 5628 5627 5626 5626 5626 5625 5624 5622 5621 5620 5617 5614 5613 5612 5611 5609 5606 5603 5599 5596 5593 5589 5587 5585 5583 5580
5618 5617 5616 5616 5614 5613 5612 5612 5612 5612 5612 5612 5612 5612 5612 5612 5614 5615 5615 5616 5617 5618 5618 5618 5619 5619 5620 5621 5621 5622 5623 5623 5623 5624 5624 5625 5625 5625 5625 5625 5624 5624 5624 5624 5624 5624 5623 5623 5622 5622 5621 5621 5621 5621 5620 5618 5616 5614 5611 5610 5608 5606 5605 5603 5600 5597 5594 5591 5587 5583 5581 5579 5577 5574
5605 5604 5604 5603 5601 5600 5599 5599 5600 5600 5601 5601 5602 5602 5601 5602 5603 5605 5606 5607 5608 5610 5611 5611 5611 5612 5613 5613 5614 5614 5615 5615 5616 5617 5618 5619 5619 5619 5619 5619 5619 5619 5619 5619 5618 5619 5619 5618 5618 5617 5616 5616 5616 5616 5615 5614 5612 5609 5606 5605 5604 5601 5598 5596 5594 5591 5589 5586 5582 5579 5576 5573 5571 5568
5592 5591 5592 5591 5590 5588 5587 5588 5588 5589 5590 5590 5591 5591 5592 5592 5593 5595 5597 5598 5600 5603 5604 5603 5604 5605 5605 5606 5607 5607 5607 5609 5610 5611 5612 5613 5613 5614 5614 5613 5613 5613 5613 5614 5614 5614 5615 5614 5613 5612 5611 5610 5610 5610 5610 5609 5607 5604 5601 5600 5598 5595 5593 5591 5588 5586 5583 5581 5578 5575 5571 5568 5565 5562
5582 5581 5581 5580 5579 5578 5577 5577 5578 5579 5579 5580 5581 5581 5582 5583 5584 5586 5588 5589 5592 5596 5598 5597 5597 5597 5598 5599 5600 5600 5601 5603 5604 5605 5606 5607 5608 5608 5609 5608 5609 5609 5609 5609 5609 5609 5609 5609 5608 5607 5606 5605 5604 5604 5604 5604 5602 5599 5596 5594 5593 5590 5588 5585 5583 5581 5578 5576 5573 5570 5567 5563 5560 5557
5572 5572 5571 5571 5570 5569 5569 5568 5568 5569 5571 5572 5572 5572 5573 5574 5575 5577 5579 5581 5583 5587 5589 5590 5590 5591 5591 5592 5594 5595 5596 5597 5599 5600 5601 5602 5603 5604 5604 5604 5604 5605 5605 5605 5605 5605 5604 5604 5604 5603 5603 5601 5600 5600 5599 5598 5597 5595 5592 5589 5588 5586 5584 5581 5578 5576 5573 5571 5568 5566 5562 5559 5556 5553
5565 5564 5563 5562 5561 5561 5561 5560 5560 5562 5563 5564 5565 5565 5566 5566 5567 5568 5570 5573 5575 5578 5580 5582 5584 5585 5586 5587 5589 5590 5591 5593 5593 5594 5595 5596 5597 5598 5598 5599 5600 5600 5600 5601 5601 5600 5600 5600 5600 5600 5599 5599 5598 5596 5594 5593 5591 5590 5587 5585 5583 5581 5579 5577 5574 5571 5568 5566 5563 5561 5558 5555 5552 5549
5556 5555 5554 5553 5553 5552 5552 5552 5553 5554 5556 5557 5558 5559 5560 5560 5561 5562 5564 5566 5568 5571 5573 5575 5577 5579 5580 5582 5584 5585 5587 5588 5588 5588 5589 5590 5591 5592 5594 5595 5595 5596 5596 5596 5596 5596 5596 5596 5597 5597 5596 5596 5594 5593 5590 5589 5587 5585 5583 5581 5579 5577 5575 5572 5570 5567 5564 5562 5559 5556 5554 5551 5548 5546
5548 5546 5544 5543 5543 5542 5542 5543 5544 5546 5548 5550 5552 5553 5554 5555 5555 5557 5559 5561 5563 5564 5567 5569 5571 5573 5575 5577 5578 5580 5581 5582 5582 5583 5583 5584 5586 5587 5589 5590 5591 5591 5592 5592 5592 5593 5593 5593 5593 5593 5593 5592 5590 5588 5586 5585 5583 5582 5580 5578 5575 5573 5570 5568 5566 5563 5560 5558 5555 5553 5550 5548 5545 5543
5538 5536 5533 5532 5531 5530 5531 5532 5534 5536 5538 5541 5544 5547 5548 5550 5551 5552 5554 5556 5557 5559 5561 5563 5565 5567 5568 5570 5572 5574 5576 5577 5577 5578 5579 5580 5582 5583 5584 5586 5586 5587 5588 5588 5589 5589 5589 5590 5590 5590 5589 5588 5586 5584 5582 5581 5580 5578 5577 5574 5572 5569 5567 5564 5562 5560 5557 5554 5552 5550 5548 5545 5543 5540
5528 5526 5523 5521 5520 5519 5519 5520 5522 5524 5528 5532 5536 5539 5542 5544 5546 5547 5548 5550 5551 5552 5554 5555 5557 5559 5561 5564 5566 5568 5570 5572 5573 5574 5575 5576 5578 5579 5580 5581 5582 5583 5584 5584 5585 5586 5586 5587 5587 5586 5585 5584 5582 5581 5579 5577 5576 5575 5573 5571 5568 5566 5563 5561 5559 5556 5554 5552 5550 5547 5545 5543 5540 5538
5522 5519 5516 5514 5512 5511 5510 5510 5512 5514 5518 5523 5528 5532 5535 5537 5539 5541 5543 5544 5545 5547 5548 5549 5551 5553 5556 5558 5561 5563 5565 5567 5568 5570 5571 5572 5574 5575 5576 5577 5578 5579 5580 5581 5582 5583 5583 5583 5583 5582 5581 5580 5579 5577 5575 5574 5573 5571 5570 5568 5565 5563 5560 5558 5556 5553 5551 5549 5547 5545 5543 5540 5538 5536
5518 5515 5513 5510 5508 5506 5504 5504 5505 5507 5510 5514 5520 5525 5528 5531 5533 5535 5537 5539 5540 5542 5543 5545 5546 5548 5550 5552 5555 5557 5560 5562 5564 5566 5567 5568 5570 5572 5573 5574 5575 5576 5577 5578 5579 5579 5580 5580 5579 5578 5577 5576 5575 5573 5572 5571 5570 5569 5567 5565 5563 5560 5558 5556 5553 5551 5549 5547 5545 5543 5540 5538 5536 5534